Station Historical Data
Daily Summary for March 8, 2018 Units:  Metric    English   Both
« Previous Day
Next Day »
Daily Weekly Monthly Yearly Custom
  High: Low: Average:
Temperature: -0.7 °C -6.2 °C -2.6 °C
Dew Point: -2.9 °C -7.8 °C -5.6 °C
Humidity: 89% 66% 80%
Wind Speed: 32.2km/h 0km/h 9.2km/h
Wind Gust: 40.2km/h - -
Wind- - WSW
Pressure: 1009.4 hPa 1006.3 hPa -
Precipitation: 0 mm    
Historical Graphs
 
 
Tabular Data for March 8, 2018
Time Temperature Dew Point Pressure Wind Wind Speed Wind Gust Humidity Rainfall Rate (Hourly)
00:04 -0.7 °C -2.9 °C 1009.4 hPa SW 12.9 km/h 30.6 km/h 85% 0 mm
00:09 -0.7 °C -2.9 °C 1009.4 hPa WSW 12.9 km/h 30.6 km/h 85% 0 mm
00:14 -0.8 °C -3 °C 1009.4 hPa WSW 11.3 km/h 22.5 km/h 85% 0 mm
00:19 -0.8 °C -3.1 °C 1009.4 hPa SW 12.9 km/h 25.7 km/h 85% 0 mm
00:24 -0.9 °C -3.1 °C 1009.4 hPa WSW 14.5 km/h 25.7 km/h 85% 0 mm
00:29 -0.9 °C -3.3 °C 1009.4 hPa West 19.3 km/h 22.5 km/h 84% 0 mm
00:34 -0.9 °C -3.4 °C 1009.4 hPa SSW 17.7 km/h 25.7 km/h 83% 0 mm
00:39 -0.9 °C -3.4 °C 1009.4 hPa SW 17.7 km/h 24.1 km/h 83% 0 mm
00:44 -0.9 °C -3.6 °C 1009.4 hPa West 14.5 km/h 29 km/h 82% 0 mm
00:49 -0.9 °C -3.6 °C 1009.4 hPa SW 14.5 km/h 24.1 km/h 82% 0 mm
00:54 -0.9 °C -3.6 °C 1009.4 hPa WSW 14.5 km/h 22.5 km/h 82% 0 mm
00:59 -0.9 °C -3.6 °C 1009.4 hPa WSW 12.9 km/h 25.7 km/h 82% 0 mm
01:04 -1 °C -3.7 °C 1009.4 hPa WSW 12.9 km/h 25.7 km/h 82% 0 mm
01:09 -1.1 °C -3.6 °C 1009.4 hPa WSW 11.3 km/h 25.7 km/h 83% 0 mm
01:14 -1.1 °C -3.4 °C 1009.4 hPa WSW 8 km/h 25.7 km/h 84% 0 mm
01:19 -1.1 °C -3.4 °C 1009.4 hPa West 14.5 km/h 20.9 km/h 84% 0 mm
01:24 -1.2 °C -3.4 °C 1009.4 hPa SW 11.3 km/h 22.5 km/h 85% 0 mm
01:29 -1.3 °C -3.5 °C 1009.4 hPa West 14.5 km/h 19.3 km/h 85% 0 mm
01:34 -1.4 °C -3.6 °C 1009.4 hPa WSW 11.3 km/h 25.7 km/h 85% 0 mm
01:39 -1.4 °C -3.5 °C 1009.4 hPa WSW 11.3 km/h 25.7 km/h 86% 0 mm
01:44 -1.4 °C -3.5 °C 1009.4 hPa WSW 9.7 km/h 19.3 km/h 86% 0 mm
01:49 -1.5 °C -3.6 °C 1009.4 hPa SW 9.7 km/h 16.1 km/h 86% 0 mm
01:54 -1.6 °C -3.6 °C 1009.4 hPa West 12.9 km/h 19.3 km/h 86% 0 mm
01:59 -1.8 °C -3.9 °C 1009.4 hPa WSW 8 km/h 20.9 km/h 85% 0 mm
02:04 -1.8 °C -4 °C 1009.4 hPa SW 9.7 km/h 16.1 km/h 85% 0 mm
02:09 -1.8 °C -4 °C 1009.4 hPa WSW 9.7 km/h 19.3 km/h 85% 0 mm
02:14 -1.8 °C -4 °C 1009 hPa WSW 9.7 km/h 19.3 km/h 85% 0 mm
02:19 -1.8 °C -4.2 °C 1009 hPa WSW 9.7 km/h 20.9 km/h 84% 0 mm
02:24 -1.8 °C -4.2 °C 1009 hPa WSW 9.7 km/h 20.9 km/h 84% 0 mm
02:29 -1.9 °C -4.2 °C 1009 hPa SW 11.3 km/h 20.9 km/h 84% 0 mm
02:34 -1.9 °C -4.3 °C 1009 hPa SSW 6.4 km/h 16.1 km/h 84% 0 mm
02:39 -1.9 °C -4.3 °C 1008.7 hPa SW 8 km/h 25.7 km/h 84% 0 mm
02:44 -2.1 °C -4.6 °C 1008.7 hPa WNW 8 km/h 17.7 km/h 83% 0 mm
02:49 -2.1 °C -4.6 °C 1008.7 hPa SW 14.5 km/h 22.5 km/h 83% 0 mm
02:54 -2.1 °C -4.7 °C 1008.7 hPa West 12.9 km/h 24.1 km/h 82% 0 mm
02:59 -2.1 °C -4.8 °C 1008.7 hPa West 9.7 km/h 22.5 km/h 82% 0 mm
03:04 -2.1 °C -4.8 °C 1008.7 hPa West 24.1 km/h 24.1 km/h 82% 0 mm
03:09 -2.1 °C -4.8 °C 1008.7 hPa WSW 19.3 km/h 24.1 km/h 82% 0 mm
03:14 -2.2 °C -4.8 °C 1008.7 hPa WSW 14.5 km/h 32.2 km/h 82% 0 mm
03:19 -2.2 °C -5 °C 1008.7 hPa WSW 14.5 km/h 32.2 km/h 81% 0 mm
03:24 -2.2 °C -5 °C 1008.7 hPa WSW 14.5 km/h 27.4 km/h 81% 0 mm
03:29 -2.2 °C -5 °C 1008.7 hPa WSW 12.9 km/h 27.4 km/h 81% 0 mm
03:34 -2.3 °C -5.1 °C 1008.7 hPa WSW 14.5 km/h 30.6 km/h 81% 0 mm
03:39 -2.4 °C -5.4 °C 1008.7 hPa West 11.3 km/h 27.4 km/h 80% 0 mm
03:44 -2.6 °C -5.6 °C 1008.7 hPa SW 16.1 km/h 27.4 km/h 80% 0 mm
03:49 -2.6 °C -5.6 °C 1008.7 hPa WSW 12.9 km/h 27.4 km/h 80% 0 mm
03:54 -2.7 °C -5.7 °C 1009 hPa WSW 12.9 km/h 27.4 km/h 80% 0 mm
03:59 -2.8 °C -5.9 °C 1009 hPa WSW 12.9 km/h 27.4 km/h 79% 0 mm
04:04 -3 °C -6.1 °C 1009 hPa West 11.3 km/h 19.3 km/h 79% 0 mm
04:09 -3.1 °C -6.3 °C 1009 hPa WSW 8 km/h 20.9 km/h 78% 0 mm
04:14 -3.2 °C -6.5 °C 1009 hPa SW 14.5 km/h 17.7 km/h 78% 0 mm
04:19 -3.3 °C -6.8 °C 1008.7 hPa WSW 4.8 km/h 19.3 km/h 77% 0 mm
04:24 -3.4 °C -6.8 °C 1008.7 hPa West 11.3 km/h 19.3 km/h 77% 0 mm
04:29 -3.4 °C -6.8 °C 1009 hPa West 9.7 km/h 19.3 km/h 77% 0 mm
04:34 -3.4 °C -6.7 °C 1008.7 hPa West 8 km/h 17.7 km/h 78% 0 mm
04:39 -3.3 °C -6.6 °C 1008.7 hPa WSW 9.7 km/h 19.3 km/h 78% 0 mm
04:44 -3.3 °C -6.6 °C 1008.7 hPa WSW 8 km/h 19.3 km/h 78% 0 mm
04:49 -3.3 °C -6.4 °C 1009 hPa WSW 6.4 km/h 12.9 km/h 79% 0 mm
04:54 -3.3 °C -6.4 °C 1009 hPa West 6.4 km/h 11.3 km/h 79% 0 mm
04:59 -3.3 °C -6.4 °C 1009 hPa West 4.8 km/h 11.3 km/h 79% 0 mm
05:04 -3.3 °C -6.4 °C 1008.7 hPa WSW 6.4 km/h 14.5 km/h 79% 0 mm
05:09 -3.3 °C -6.4 °C 1009 hPa WSW 4.8 km/h 14.5 km/h 79% 0 mm
05:14 -3.3 °C -6.4 °C 1008.7 hPa West 3.2 km/h 11.3 km/h 79% 0 mm
05:19 -3.3 °C -6.4 °C 1008.7 hPa Calm   9.7 km/h 79% 0 mm
05:24 -3.3 °C -6.2 °C 1008.7 hPa SW 4.8 km/h 11.3 km/h 80% 0 mm
05:29 -3.2 °C -6.2 °C 1009 hPa WSW 4.8 km/h 9.7 km/h 80% 0 mm
05:34 -3.2 °C -6.1 °C 1008.7 hPa WSW 4.8 km/h 14.5 km/h 80% 0 mm
05:39 -3.2 °C -6.1 °C 1009 hPa SW 6.4 km/h 14.5 km/h 80% 0 mm
05:44 -3.2 °C -5.9 °C 1009 hPa SW 8 km/h 17.7 km/h 81% 0 mm
05:49 -3.2 °C -5.9 °C 1009 hPa SW 8 km/h 17.7 km/h 81% 0 mm
05:54 -3.2 °C -6 °C 1009 hPa SW 6.4 km/h 12.9 km/h 81% 0 mm
05:59 -3.3 °C -6.1 °C 1009 hPa SW 6.4 km/h 12.9 km/h 81% 0 mm
06:04 -3.4 °C -6 °C 1009 hPa SW 6.4 km/h 12.9 km/h 82% 0 mm
06:09 -3.4 °C -6.1 °C 1009 hPa SW 6.4 km/h 20.9 km/h 82% 0 mm
06:14 -3.5 °C -6.1 °C 1008.7 hPa SW 3.2 km/h 16.1 km/h 82% 0 mm
06:19 -3.6 °C -6.2 °C 1009 hPa SW 4.8 km/h 14.5 km/h 82% 0 mm
06:24 -3.7 °C -6.4 °C 1009 hPa WSW 6.4 km/h 16.1 km/h 81% 0 mm
06:29 -3.7 °C -6.5 °C 1009 hPa WSW 9.7 km/h 17.7 km/h 81% 0 mm
06:34 -3.8 °C -6.6 °C 1009 hPa SW 12.9 km/h 22.5 km/h 81% 0 mm
06:39 -3.8 °C -6.8 °C 1009 hPa SW 6.4 km/h 19.3 km/h 80% 0 mm
06:44 -3.9 °C -7 °C 1009 hPa WSW 9.7 km/h 19.3 km/h 79% 0 mm
06:49 -3.9 °C -7.2 °C 1009 hPa WSW 8 km/h 14.5 km/h 78% 0 mm
06:54 -3.8 °C -7.1 °C 1009 hPa WSW 8 km/h 14.5 km/h 78% 0 mm
06:59 -3.8 °C -7.1 °C 1009 hPa WSW 8 km/h 20.9 km/h 78% 0 mm
07:04 -3.8 °C -7.1 °C 1009 hPa WSW 6.4 km/h 20.9 km/h 78% 0 mm
07:09 -3.8 °C -7.1 °C 1009 hPa WSW 3.2 km/h 12.9 km/h 78% 0 mm
07:14 -3.7 °C -7 °C 1009 hPa WSW 6.4 km/h 12.9 km/h 78% 0 mm
07:19 -3.6 °C -6.9 °C 1009 hPa WSW 6.4 km/h 14.5 km/h 78% 0 mm
07:24 -3.6 °C -6.8 °C 1009 hPa WSW 6.4 km/h 14.5 km/h 78% 0 mm
07:29 -3.6 °C -6.8 °C 1009 hPa WSW 4.8 km/h 14.5 km/h 78% 0 mm
07:34 -3.6 °C -6.8 °C 1009 hPa WSW 1.6 km/h 12.9 km/h 78% 0 mm
07:39 -3.4 °C -6.7 °C 1009 hPa WSW 8 km/h 11.3 km/h 78% 0 mm
07:44 -3.3 °C -6.6 °C 1009 hPa WSW 8 km/h 11.3 km/h 78% 0 mm
07:49 -3.2 °C -6.4 °C 1009.4 hPa WSW 3.2 km/h 11.3 km/h 78% 0 mm
07:54 -3.1 °C -6.6 °C 1009 hPa WSW 6.4 km/h 12.9 km/h 77% 0 mm
07:59 -3 °C -6.4 °C 1009 hPa WSW 6.4 km/h 12.9 km/h 77% 0 mm
08:04 -2.9 °C -6.6 °C 1009 hPa WSW 6.4 km/h 25.7 km/h 76% 0 mm
08:09 -3 °C -6.6 °C 1009 hPa SW 11.3 km/h 25.7 km/h 76% 0 mm
08:14 -3.1 °C -6.9 °C 1009 hPa WSW 16.1 km/h 22.5 km/h 75% 0 mm
08:19 -2.8 °C -6.4 °C 1009 hPa WSW 4.8 km/h 19.3 km/h 76% 0 mm
08:24 -2.6 °C -6.4 °C 1009 hPa WSW 6.4 km/h 17.7 km/h 75% 0 mm
08:29 -2.4 °C -6.1 °C 1009 hPa WSW 9.7 km/h 20.9 km/h 76% 0 mm
08:34 -2.3 °C -6 °C 1009 hPa WSW 8 km/h 20.9 km/h 76% 0 mm
08:39 -2.2 °C -5.8 °C 1009 hPa SSW 8 km/h 19.3 km/h 76% 0 mm
08:44 -2.2 °C -6 °C 1009 hPa NW 6.4 km/h 19.3 km/h 75% 0 mm
08:49 -2.3 °C -6.3 °C 1009 hPa West 14.5 km/h 20.9 km/h 74% 0 mm
08:54 -2.2 °C -6.2 °C 1009 hPa WSW 12.9 km/h 20.9 km/h 74% 0 mm
08:59 -2.3 °C -6.3 °C 1009 hPa SW 9.7 km/h 24.1 km/h 74% 0 mm
09:04 -2.2 °C -6.2 °C 1009 hPa WSW 11.3 km/h 24.1 km/h 74% 0 mm
09:09 -2.2 °C -6 °C 1009 hPa SW 9.7 km/h 19.3 km/h 75% 0 mm
09:14 -2.2 °C -6.2 °C 1009 hPa SW 9.7 km/h 19.3 km/h 74% 0 mm
09:19 -2.3 °C -6.3 °C 1009 hPa WSW 11.3 km/h 20.9 km/h 74% 0 mm
09:24 -2.2 °C -6.1 °C 1009 hPa WSW 9.7 km/h 20.9 km/h 75% 0 mm
09:29 -2.1 °C -6.1 °C 1009 hPa WSW 9.7 km/h 19.3 km/h 74% 0 mm
09:34 -2.1 °C -6.1 °C 1009 hPa WSW 17.7 km/h 19.3 km/h 74% 0 mm
09:39 -2.1 °C -6.1 °C 1009 hPa WSW 9.7 km/h 20.9 km/h 74% 0 mm
09:44 -2.1 °C -6.1 °C 1009 hPa SW 11.3 km/h 20.9 km/h 74% 0 mm
09:49 -1.9 °C -5.9 °C 1009 hPa SSW 9.7 km/h 25.7 km/h 74% 0 mm
09:54 -1.8 °C -5.8 °C 1009 hPa WSW 8 km/h 20.9 km/h 74% 0 mm
09:59 -1.9 °C -6.3 °C 1009 hPa WSW 12.9 km/h 29 km/h 72% 0 mm
10:04 -1.9 °C -6.5 °C 1009 hPa SW 17.7 km/h 25.7 km/h 71% 0 mm
10:09 -1.8 °C -6.6 °C 1009 hPa West 9.7 km/h 20.9 km/h 70% 0 mm
10:14 -1.7 °C -6.4 °C 1009 hPa WSW 12.9 km/h 24.1 km/h 70% 0 mm
10:19 -1.8 °C -6.8 °C 1009 hPa SW 14.5 km/h 35.4 km/h 69% 0 mm
10:24 -1.7 °C -6.6 °C 1009 hPa SW 16.1 km/h 35.4 km/h 69% 0 mm
10:29 -1.6 °C -6.5 °C 1009 hPa SW 12.9 km/h 24.1 km/h 69% 0 mm
10:34 -1.8 °C -6.9 °C 1009 hPa WSW 14.5 km/h 27.4 km/h 68% 0 mm
10:39 -2 °C -7.3 °C 1009 hPa WSW 16.1 km/h 29 km/h 67% 0 mm
10:44 -1.9 °C -7.1 °C 1008.7 hPa WSW 14.5 km/h 29 km/h 68% 0 mm
10:49 -1.7 °C -6.8 °C 1008.7 hPa SW 11.3 km/h 32.2 km/h 68% 0 mm
10:54 -1.7 °C -7.1 °C 1008.7 hPa SW 14.5 km/h 38.6 km/h 67% 0 mm
10:59 -1.7 °C -7.2 °C 1008.7 hPa SW 24.1 km/h 35.4 km/h 66% 0 mm
11:04 -1.4 °C -6.7 °C 1009 hPa WNW 8 km/h 33.8 km/h 67% 0 mm
11:09 -1.3 °C -6.4 °C 1008.7 hPa WSW 11.3 km/h 25.7 km/h 68% 0 mm
11:14 -1.5 °C -6.7 °C 1008.7 hPa WSW 16.1 km/h 29 km/h 68% 0 mm
11:19 -1.3 °C -6.1 °C 1009 hPa WSW 14.5 km/h 29 km/h 70% 0 mm
11:24 -0.7 °C -5.9 °C 1009 hPa WSW 12.9 km/h 33.8 km/h 68% 0 mm
11:29 -1.3 °C -6.4 °C 1009 hPa WSW 16.1 km/h 33.8 km/h 68% 0 mm
11:34 -1.4 °C -6.3 °C 1009 hPa WSW 17.7 km/h 33.8 km/h 69% 0 mm
11:39 -1.6 °C -6.5 °C 1008.7 hPa SW 17.7 km/h 33.8 km/h 69% 0 mm
11:44 -1.7 °C -6.7 °C 1008.7 hPa SW 12.9 km/h 33.8 km/h 69% 0 mm
11:49 -1.7 °C -6.3 °C 1008.7 hPa SW 6.4 km/h 27.4 km/h 71% 0 mm
11:54 -1.7 °C -6.1 °C 1008.7 hPa SW 9.7 km/h 27.4 km/h 72% 0 mm
11:59 -1.7 °C -5.9 °C 1008.7 hPa SW 12.9 km/h 27.4 km/h 73% 0 mm
12:04 -1.9 °C -5.9 °C 1008.7 hPa West 11.3 km/h 30.6 km/h 74% 0 mm
12:09 -1.8 °C -5.8 °C 1008.7 hPa WSW 32.2 km/h 35.4 km/h 74% 0 mm
12:14 -1.7 °C -6.1 °C 1008.7 hPa West 9.7 km/h 32.2 km/h 72% 0 mm
12:19 -1.6 °C -5.9 °C 1008.7 hPa SW 14.5 km/h 25.7 km/h 72% 0 mm
12:24 -1.3 °C -5.7 °C 1008.7 hPa SW 8 km/h 24.1 km/h 72% 0 mm
12:29 -1.2 °C -6.3 °C 1008.7 hPa WSW 14.5 km/h 29 km/h 68% 0 mm
12:34 -1.2 °C -6.5 °C 1008.7 hPa WSW 14.5 km/h 30.6 km/h 67% 0 mm
12:39 -1.3 °C -6.9 °C 1008.4 hPa WSW 16.1 km/h 30.6 km/h 66% 0 mm
12:44 -1.2 °C -6.6 °C 1008.4 hPa WSW 14.5 km/h 29 km/h 67% 0 mm
12:49 -1.2 °C -6.5 °C 1008.4 hPa WSW 14.5 km/h 27.4 km/h 67% 0 mm
12:54 -1.4 °C -6.8 °C 1008.4 hPa SW 8 km/h 24.1 km/h 67% 0 mm
12:59 -1.3 °C -6.4 °C 1008.4 hPa WSW 14.5 km/h 24.1 km/h 68% 0 mm
13:04 -1.4 °C -6.6 °C 1008.4 hPa WSW 12.9 km/h 25.7 km/h 68% 0 mm
13:09 -1.5 °C -6.8 °C 1008.4 hPa WSW 14.5 km/h 25.7 km/h 67% 0 mm
13:14 -1.6 °C -6.9 °C 1008.4 hPa SSW 32.2 km/h 40.2 km/h 67% 0 mm
13:19 -1.7 °C -6.8 °C 1008.4 hPa WSW 16.1 km/h 32.2 km/h 68% 0 mm
13:24 -1.8 °C -6.7 °C 1008 hPa WSW 17.7 km/h 30.6 km/h 69% 0 mm
13:29 -1.8 °C -6.8 °C 1008 hPa South 16.1 km/h 30.6 km/h 69% 0 mm
13:34 -2 °C -6.7 °C 1008.4 hPa SW 20.9 km/h 30.6 km/h 70% 0 mm
13:39 -1.9 °C -6.3 °C 1008 hPa WSW 16.1 km/h 30.6 km/h 72% 0 mm
13:44 -1.8 °C -6.1 °C 1008.4 hPa WSW 14.5 km/h 30.6 km/h 73% 0 mm
13:49 -1.8 °C -5.8 °C 1008 hPa WSW 14.5 km/h 30.6 km/h 74% 0 mm
13:54 -1.7 °C -5.7 °C 1008 hPa WSW 12.9 km/h 25.7 km/h 74% 0 mm
13:59 -1.7 °C -5.7 °C 1008 hPa WSW 12.9 km/h 25.7 km/h 74% 0 mm
14:04 -1.8 °C -5.7 °C 1008 hPa SW 12.9 km/h 25.7 km/h 75% 0 mm
14:09 -1.8 °C -5.5 °C 1007.7 hPa WSW 14.5 km/h 25.7 km/h 76% 0 mm
14:14 -1.7 °C -5.6 °C 1007.7 hPa WSW 16.1 km/h 29 km/h 75% 0 mm
14:19 -1.6 °C -5.6 °C 1007.7 hPa WSW 16.1 km/h 29 km/h 74% 0 mm
14:24 -1.6 °C -5.6 °C 1007.7 hPa WSW 14.5 km/h 25.7 km/h 74% 0 mm
14:29 -1.8 °C -5.8 °C 1007.7 hPa SW 14.5 km/h 32.2 km/h 74% 0 mm
14:34 -1.9 °C -5.8 °C 1008 hPa SW 16.1 km/h 32.2 km/h 75% 0 mm
14:39 -1.9 °C -5.6 °C 1008 hPa SW 19.3 km/h 25.7 km/h 76% 0 mm
14:44 -2.1 °C -5.6 °C 1008 hPa WSW 8 km/h 32.2 km/h 77% 0 mm
14:49 -2.2 °C -5.5 °C 1007.7 hPa SW 12.9 km/h 32.2 km/h 78% 0 mm
14:54 -2.2 °C -5.4 °C 1007.7 hPa SW 14.5 km/h 29 km/h 79% 0 mm
14:59 -2.1 °C -5.1 °C 1007.7 hPa SW 14.5 km/h 25.7 km/h 80% 0 mm
15:04 -1.9 °C -4.9 °C 1007.7 hPa SW 9.7 km/h 30.6 km/h 80% 0 mm
15:09 -1.9 °C -4.9 °C 1007.7 hPa SW 9.7 km/h 27.4 km/h 80% 0 mm
15:14 -2.1 °C -5.1 °C 1007.7 hPa West 11.3 km/h 29 km/h 80% 0 mm
15:19 -2.1 °C -5.1 °C 1007.3 hPa SW 14.5 km/h 27.4 km/h 80% 0 mm
15:24 -2 °C -5 °C 1007.7 hPa WSW 14.5 km/h 27.4 km/h 80% 0 mm
15:29 -2.1 °C -4.9 °C 1007.7 hPa SW 11.3 km/h 25.7 km/h 81% 0 mm
15:34 -2.1 °C -4.9 °C 1007.7 hPa SW 14.5 km/h 29 km/h 81% 0 mm
15:39 -2.2 °C -5 °C 1007.7 hPa SW 12.9 km/h 25.7 km/h 81% 0 mm
15:44 -2.1 °C -4.7 °C 1007.7 hPa WSW 8 km/h 24.1 km/h 82% 0 mm
15:49 -1.9 °C -4.6 °C 1007.7 hPa WSW 12.9 km/h 22.5 km/h 82% 0 mm
15:54 -2.1 °C -4.9 °C 1007.7 hPa West 9.7 km/h 25.7 km/h 81% 0 mm
15:59 -1.9 °C -4.8 °C 1007.7 hPa WSW 12.9 km/h 27.4 km/h 81% 0 mm
16:04 -2.1 °C -4.9 °C 1007.7 hPa WSW 12.9 km/h 27.4 km/h 81% 0 mm
16:09 -2.1 °C -4.9 °C 1007.7 hPa WSW 12.9 km/h 25.7 km/h 81% 0 mm
16:14 -1.8 °C -4.5 °C 1007.7 hPa SW 14.5 km/h 16.1 km/h 82% 0 mm
16:19 -1.9 °C -4.6 °C 1007.7 hPa WSW 17.7 km/h 20.9 km/h 82% 0 mm
16:24 -2.1 °C -4.9 °C 1007.7 hPa SW 6.4 km/h 22.5 km/h 81% 0 mm
16:29 -2.1 °C -4.8 °C 1007.7 hPa WSW 11.3 km/h 20.9 km/h 82% 0 mm
16:34 -2.1 °C -4.8 °C 1007.7 hPa WSW 9.7 km/h 20.9 km/h 82% 0 mm
16:39 -2.2 °C -4.7 °C 1007.7 hPa SW 9.7 km/h 20.9 km/h 83% 0 mm
16:44 -2.3 °C -4.8 °C 1007.7 hPa SW 3.2 km/h 19.3 km/h 83% 0 mm
16:49 -2.3 °C -4.7 °C 1008 hPa WSW 9.7 km/h 17.7 km/h 84% 0 mm
16:54 -2.3 °C -4.7 °C 1008 hPa SW 11.3 km/h 20.9 km/h 84% 0 mm
16:59 -2.3 °C -4.6 °C 1007.7 hPa SW 11.3 km/h 14.5 km/h 84% 0 mm
17:04 -2.3 °C -4.6 °C 1007.7 hPa WSW 6.4 km/h 24.1 km/h 84% 0 mm
17:09 -2.2 °C -4.6 °C 1007.7 hPa WSW 11.3 km/h 24.1 km/h 84% 0 mm
17:14 -2.2 °C -4.6 °C 1007.7 hPa SW 8 km/h 24.1 km/h 84% 0 mm
17:19 -2.3 °C -4.6 °C 1008 hPa WSW 11.3 km/h 24.1 km/h 84% 0 mm
17:24 -2.3 °C -4.6 °C 1008 hPa SW 9.7 km/h 17.7 km/h 84% 0 mm
17:29 -2.3 °C -4.7 °C 1007.7 hPa SW 11.3 km/h 24.1 km/h 84% 0 mm
17:34 -2.3 °C -4.7 °C 1008 hPa WSW 8 km/h 20.9 km/h 84% 0 mm
17:39 -2.3 °C -4.7 °C 1008 hPa SW 17.7 km/h 17.7 km/h 84% 0 mm
17:44 -2.3 °C -4.7 °C 1008 hPa WSW 11.3 km/h 24.1 km/h 84% 0 mm
17:49 -2.3 °C -4.7 °C 1008 hPa WSW 11.3 km/h 24.1 km/h 84% 0 mm
17:54 -2.3 °C -4.5 °C 1008 hPa SW 11.3 km/h 19.3 km/h 85% 0 mm
17:59 -2.3 °C -4.5 °C 1008 hPa WSW 9.7 km/h 19.3 km/h 85% 0 mm
18:04 -2.3 °C -4.5 °C 1008 hPa WSW 9.7 km/h 17.7 km/h 85% 0 mm
18:09 -2.3 °C -4.4 °C 1007.7 hPa SW 8 km/h 14.5 km/h 85% 0 mm
18:14 -2.3 °C -4.4 °C 1007.7 hPa WSW 8 km/h 22.5 km/h 85% 0 mm
18:19 -2.3 °C -4.4 °C 1007.7 hPa WSW 9.7 km/h 22.5 km/h 85% 0 mm
18:24 -2.2 °C -4.4 °C 1007.7 hPa West 11.3 km/h 19.3 km/h 85% 0 mm
18:29 -2.2 °C -4.4 °C 1007.7 hPa WSW 9.7 km/h 17.7 km/h 85% 0 mm
18:34 -2.3 °C -4.4 °C 1007.7 hPa West 4.8 km/h 17.7 km/h 85% 0 mm
18:39 -2.2 °C -4.4 °C 1008 hPa West 6.4 km/h 16.1 km/h 85% 0 mm
18:44 -2.2 °C -4.4 °C 1007.7 hPa WSW 4.8 km/h 14.5 km/h 85% 0 mm
18:49 -2.2 °C -4.2 °C 1007.7 hPa West 11.3 km/h 17.7 km/h 86% 0 mm
18:54 -2.2 °C -4.2 °C 1007.7 hPa WSW 9.7 km/h 17.7 km/h 86% 0 mm
18:59 -2.1 °C -4.1 °C 1007.7 hPa WSW 8 km/h 17.7 km/h 86% 0 mm
19:04 -2.1 °C -4.1 °C 1007.7 hPa WSW 8 km/h 16.1 km/h 86% 0 mm
19:09 -2.1 °C -4.1 °C 1007.7 hPa WSW 6.4 km/h 16.1 km/h 86% 0 mm
19:14 -2.1 °C -4.1 °C 1007.7 hPa West 6.4 km/h 14.5 km/h 86% 0 mm
19:19 -2 °C -4.1 °C 1007.7 hPa West 6.4 km/h 16.1 km/h 86% 0 mm
19:24 -2.1 °C -4.1 °C 1007.7 hPa West 4.8 km/h 14.5 km/h 86% 0 mm
19:29 -2.1 °C -4.1 °C 1007.7 hPa West 3.2 km/h 11.3 km/h 86% 0 mm
19:34 -2.1 °C -4.1 °C 1007.7 hPa WSW 12.9 km/h 14.5 km/h 86% 0 mm
19:39 -2.1 °C -4.1 °C 1007.7 hPa West 3.2 km/h 14.5 km/h 86% 0 mm
19:44 -2 °C -4.1 °C 1007.7 hPa West 9.7 km/h 11.3 km/h 86% 0 mm
19:49 -2.1 °C -4.1 °C 1007.7 hPa WSW 4.8 km/h 9.7 km/h 86% 0 mm
19:54 -2.1 °C -4.1 °C 1007.3 hPa West 1.6 km/h 12.9 km/h 86% 0 mm
19:59 -2.2 °C -4.2 °C 1007.3 hPa West 1.6 km/h 9.7 km/h 86% 0 mm
20:04 -2.3 °C -4.3 °C 1007.3 hPa West 4.8 km/h 11.3 km/h 86% 0 mm
20:09 -2.4 °C -4.4 °C 1007.7 hPa West 4.8 km/h 11.3 km/h 86% 0 mm
20:14 -2.4 °C -4.4 °C 1007.3 hPa West 3.2 km/h 9.7 km/h 86% 0 mm
20:19 -2.5 °C -4.5 °C 1007.3 hPa West 1.6 km/h 4.8 km/h 86% 0 mm
20:24 -2.6 °C -4.6 °C 1007.3 hPa Calm   4.8 km/h 86% 0 mm
20:29 -2.6 °C -4.6 °C 1007.3 hPa West 1.6 km/h 4.8 km/h 86% 0 mm
20:34 -2.6 °C -4.6 °C 1007.3 hPa Calm   1.6 km/h 86% 0 mm
20:39 -2.6 °C -4.6 °C 1007 hPa Calm   6.4 km/h 86% 0 mm
20:44 -2.7 °C -4.7 °C 1007 hPa Calm   6.4 km/h 86% 0 mm
20:49 -2.8 °C -5 °C 1007 hPa Calm   1.6 km/h 85% 0 mm
20:54 -2.8 °C -4.9 °C 1007 hPa West 6.4 km/h 6.4 km/h 85% 0 mm
20:59 -2.9 °C -5.2 °C 1007 hPa Calm   6.4 km/h 84% 0 mm
21:04 -2.9 °C -5.3 °C 1007 hPa West 1.6 km/h 3.2 km/h 84% 0 mm
21:09 -3.1 °C -5.4 °C 1007 hPa Calm   1.6 km/h 84% 0 mm
21:14 -3.1 °C -5.4 °C 1007 hPa Calm   1.6 km/h 84% 0 mm
21:19 -3.3 °C -5.6 °C 1006.7 hPa Calm     84% 0 mm
21:24 -3.6 °C -6 °C 1006.7 hPa Calm     83% 0 mm
21:29 -3.9 °C -6.2 °C 1006.7 hPa Calm     84% 0 mm
21:34 -4.1 °C -6.3 °C 1006.7 hPa Calm     84% 0 mm
21:39 -4.1 °C -6.2 °C 1006.7 hPa Calm     85% 0 mm
21:44 -4.1 °C -6.3 °C 1006.7 hPa Calm     85% 0 mm
21:49 -4.2 °C -6.3 °C 1006.7 hPa Calm     85% 0 mm
21:54 -4.3 °C -6.5 °C 1006.7 hPa Calm     85% 0 mm
21:59 -4.4 °C -6.6 °C 1006.7 hPa Calm     85% 0 mm
22:04 -4.7 °C -6.8 °C 1006.7 hPa Calm     85% 0 mm
22:09 -4.9 °C -7 °C 1006.7 hPa Calm     85% 0 mm
22:14 -5.1 °C -7.1 °C 1006.7 hPa Calm     86% 0 mm
22:19 -5.3 °C -7.3 °C 1006.7 hPa Calm     86% 0 mm
22:24 -5.3 °C -7.3 °C 1006.7 hPa Calm     86% 0 mm
22:29 -5.4 °C -7.4 °C 1006.7 hPa Calm     86% 0 mm
22:34 -5.5 °C -7.3 °C 1006.3 hPa Calm     87% 0 mm
22:39 -5.6 °C -7.4 °C 1006.3 hPa Calm     87% 0 mm
22:44 -5.6 °C -7.4 °C 1006.7 hPa Calm     87% 0 mm
22:49 -5.6 °C -7.4 °C 1006.3 hPa Calm     87% 0 mm
22:54 -5.7 °C -7.5 °C 1006.3 hPa Calm     87% 0 mm
22:59 -5.8 °C -7.6 °C 1006.3 hPa Calm     87% 0 mm
23:04 -5.8 °C -7.5 °C 1006.3 hPa Calm     88% 0 mm
23:09 -5.9 °C -7.6 °C 1006.3 hPa Calm     88% 0 mm
23:14 -6 °C -7.7 °C 1006.3 hPa Calm     88% 0 mm
23:19 -6 °C -7.7 °C 1006.3 hPa Calm     88% 0 mm
23:24 -6 °C -7.7 °C 1006.3 hPa Calm     88% 0 mm
23:29 -6 °C -7.7 °C 1006.3 hPa Calm     88% 0 mm
23:34 -6.2 °C -7.8 °C 1006.3 hPa Calm     88% 0 mm
23:39 -6.2 °C -7.8 °C 1006.3 hPa Calm     88% 0 mm
23:44 -5.9 °C -7.4 °C 1006.3 hPa Calm     89% 0 mm
23:49 -5.6 °C -7.1 °C 1006.3 hPa Calm     89% 0 mm
23:54 -5.3 °C -6.8 °C 1006.3 hPa Calm     89% 0 mm
23:59 -4.9 °C -6.5 °C 1006.3 hPa Calm     89% 0 mm
Buffalo, New York, USA
Compliments of Weather Underground - 2.5 mb